GSAT-16

Last updated on Wed Jul 02 2025 00:02:46 GMT+0000 (Coordinated Universal Time)

1 40332U 14078A 25182.60739375 .00000088 00000+0 00000+0 0 9994 2 40332 0.0434 255.8272 0007641 190.0583 107.7416 1.00273371 38595
UTC large
Height (km)
Speed (km/s)
/
Latitude / Longitude
Inclination (degrees)
Orbital Period (minutes)
Azimuth
Elevation
Range (km)
Doppler Factor

Next 0 passes for location: London (51.5072 / 0.1276)

Sorry there are no passes over London.